sat.trackr.live / text

‹ back to catalog

STARLINK-5294

NORAD 54159 · 2022-141C

PAYLOAD ACTIVE UNKNOWN

§ Identity

Operator
Country
US
Launch date
2022-10-28
Launch site
AFWTR
Launch vehicle
Mass (kg)
RCS (m²)

Purposes: comms

External: N2YO · Heavens-Above · Gunter

§ Orbital elements

Epoch: 2026-09-20T22:00:03.000096Z

Period
93.90 min
Inclination
53.1681°
Eccentricity
0.0001465
Mean motion
15.33543297 rev/d
Perigee alt
464.2 km
Apogee alt
466.3 km
Semi-major
6,843.4 km
B*
2.9851e-7
RAAN
215.5802°
Arg perigee
91.1488°
Mean anomaly
175.2199°
Rev number
570

§ Raw data

STARLINK-52941 54159U 22141C   26263.91670139 -.00000363  00000+0  29851-6 0  99922 54159  53.1681 215.5802 0001465  91.1488 175.2199 15.33543297  5708

JSON: /api/v1/satellites/54159 · /tle

For live sub-satellite position, see the globe view (requires WebGL).

§ Visibility from observer

Set your observer location to see the next 7 days of passes ≥ 10°. The values pass through the URL so the page stays shareable.

No JS? Fill the form by hand. The geolocation button needs JavaScript.